Погода в Паргелии

Италия     38°40′57″N   15°55′14″E
темп.,
°C
ветер,
м/с
пор.,
м/с
влажн.,
%
обл.,
%
осадки,
мм/ч
давл.,
гПа
погр.,
м
17 сентября, пт
пт1723:00+25вюв2254100 0.0 101827
02:00+25в1152100 0.0 101725
05:00+26вюв2248100 0.0 101520
08:00+26в11507 0.0 101518
11:00+28с3343100 0.0 1015156
14:00+27ссв224896 0.1 1015178
17:00+27с444812 0.0 1015131
20:00+25юв445113 0.0 101550
18 сентября, сб
сб1823:00+26с115575 0.0 101418
02:00+25всв345821 0.0 101467
05:00+25юв336042 0.0 101459
08:00+26ю11565 0.0 101415
11:00+29ссз01538 0.1 1013184
14:00+27с335996 0.1 1013202
17:00+28зюз125598 0.0 1012131
20:00+26сз236426 0.0 101428
19 сентября, вс
вс1923:00+25ссв1163100 0.0 101312
02:00+25в116274 0.0 101313
05:00+25сз116258 0.0 101416
08:00+25зсз115832 0.0 101454
11:00+26сз225675 0.0 1014238
14:00+26ссз33620 0.0 1014337
17:00+26ссз23670 0.0 1014345
20:00+24зсз22760 0.0 1014236
20 сентября, пн
пн2023:00+24з33800 0.0 1015418
02:00+24зсз448556 0.1 1016597
05:00+23сз348061 0.1 1015624
08:00+23с2275100 0.1 1015565
11:00+24зсз22696 0.0 1016448
14:00+24с437191 0.0 1015372
17:00+24с336888 0.0 1014327
20:00+24ссз3371100 0.0 1016338
21 сентября, вт
вт2123:00+24ссз4573100 0.0 1018533
02:00+23с347591 0.0 1017600
05:00+23зсз1275100 0.0 1017383
08:00+24юв116781 0.0 1017260
11:00+24всв3461100 0.0 1017322
14:00+25с226467 0.0 1016244
17:00+25с33687 0.0 1016272
20:00+23св237314 0.0 1017164